COSMOS 1275 DEB, 14504

Orbit data source: Space-Track

COSMOS 1275 DEB, 14504 is space debris in LEO originally from a launch on Thu, 04 Jun 1981 UTC launched from the Plesetsk Missile And Space Complex (PKMTR). Debris objects in space refer to the collection of defunct objects orbiting the Earth. Examples of debris include non-operational satellites, rocket bodies, and fragments generated from explosions, collisions, or faulty payload assembly.

Loading next visibility...
Identifier
14504, 1981-053JJ
Orbit
LEO
Country
Flag of CISCIS
Related business
Manufacturer
Unknown
Mission
Spacecraft
Bus & Motor
Unknown
Mass
Unknown
Launch date (UTC)
1981-06-04 (45 years ago)
Launch vehicle
Unknown
Launch site
Plesetsk Missile And Space Complex (PKMTR)
Object type
Payload
Rocket body
Debris
Shape & HBR
Unknown shape, 0.1 m
Radar Cross Section
Small (<0.1 m²)

Expand to show TLE details & history
Last TLE update: 2 days ago

TLE from 2 days ago
0 COSMOS 1275 DEB
1 14504U 81053JJ  25339.41469375  .00003421  00000-0  20196-2 0  9992
2 14504  83.1913 120.6899 0021588 258.8559 155.2027 14.07455374255220
Epoch: 2025-12-05T09:57Z
TLE epoch observation values (Epoch: 2025-12-05T09:57:09.539Z)
Latitude
53.70492°
Longitude
-93.75052°
Altitude
891.128 km
Speed
7.404 km/s
True Right ascension
08h 39m 59s
True Declination
53° 32' 37"
Sunlit
Object was in full shadow at epoch
Visualization orbit readout
Latitude
Unknown
Longitude
Unknown
Altitude
Unknown
Speed
Unknown
Apparent Right ascension
Unknown
Apparent Declination
Unknown
Sunlit
N/A
Visualization observer readout
Local Sidereal Time
13:06:23
Azimuth
Unknown
Elevation
Unknown
Doppler factor
Unknown
Orbital elements
Apogee altitude
880.824 km
Perigee altitude
849.55 km
Semi-major axis
7,243.324 km
Eccentricity
0.00216
Inclination
83.1913°
RAAN
120.6899°
Arg. of periapsis
258.8559°
True anomaly
155.3062°
Mean anomaly
155.2027°
Eccentric anomaly
155.25448°
Mean motion
3.52076 °/min
Orbital period
102.25 mins
BSTAR
0.0020196
Loading maneuver chart data...
Computing Atmospheric mass density...

Documentation

Showing up to 5 results
|